Time,TemperatureF,DewpointF,PressureIn,WindDirection,WindDirectionDegrees,WindSpeedMPH,WindSpeedGustMPH,Humidity,HourlyPrecipIn,Conditions,Clouds,dailyrainin,SoftwareType,DateUTC
2014-01-08 00:05:00,4.1,2.0,30.45,South,178,0.0,2.0,89,0.00,,,0.00,weatherlink.com 1.10,2014-01-08 05:05:00,
2014-01-08 00:20:00,4.3,2.0,30.45,West,278,0.0,4.0,89,0.00,,,0.00,weatherlink.com 1.10,2014-01-08 05:20:00,
2014-01-08 00:35:00,4.5,2.0,30.45,WNW,296,0.0,1.0,90,0.00,,,0.00,weatherlink.com 1.10,2014-01-08 05:35:00,
2014-01-08 00:50:00,4.7,2.0,30.45,SW,216,0.0,1.0,90,0.00,,,0.00,weatherlink.com 1.10,2014-01-08 05:50:00,
2014-01-08 01:05:00,4.9,3.0,30.45,SW,216,0.0,0.0,90,0.00,,,0.00,weatherlink.com 1.10,2014-01-08 06:05:00,
2014-01-08 01:20:00,4.9,2.0,30.45,SW,216,0.0,0.0,89,0.00,,,0.00,weatherlink.com 1.10,2014-01-08 06:20:00,
2014-01-08 01:35:00,4.9,2.0,30.46,SW,216,0.0,1.0,89,0.00,,,0.00,weatherlink.com 1.10,2014-01-08 06:35:00,
2014-01-08 01:50:00,4.9,2.0,30.45,SW,216,0.0,0.0,89,0.00,,,0.00,weatherlink.com 1.10,2014-01-08 06:50:00,
2014-01-08 02:05:00,4.9,2.0,30.46,NW,315,0.0,1.0,89,0.00,,,0.00,weatherlink.com 1.10,2014-01-08 07:05:00,
2014-01-08 02:20:00,4.9,2.0,30.45,NW,310,0.0,1.0,89,0.00,,,0.00,weatherlink.com 1.10,2014-01-08 07:20:00,
2014-01-08 02:35:00,4.9,2.0,30.46,NW,310,0.0,0.0,89,0.00,,,0.00,weatherlink.com 1.10,2014-01-08 07:35:00,
2014-01-08 02:50:00,4.7,2.0,30.47,NW,310,0.0,0.0,89,0.00,,,0.00,weatherlink.com 1.10,2014-01-08 07:50:00,
2014-01-08 03:05:00,4.5,2.0,30.47,NW,310,0.0,0.0,89,0.00,,,0.00,weatherlink.com 1.10,2014-01-08 08:05:00,
2014-01-08 03:20:00,4.2,1.0,30.48,NW,310,0.0,0.0,88,0.00,,,0.00,weatherlink.com 1.10,2014-01-08 08:20:00,
2014-01-08 03:35:00,3.8,1.0,30.47,NW,310,0.0,0.0,88,0.00,,,0.00,weatherlink.com 1.10,2014-01-08 08:35:00,
2014-01-08 03:50:00,3.5,1.0,30.47,NW,310,0.0,0.0,88,0.00,,,0.00,weatherlink.com 1.10,2014-01-08 08:50:00,
2014-01-08 04:06:00,3.2,1.0,30.47,NW,310,0.0,0.0,88,0.00,,,0.00,weatherlink.com 1.10,2014-01-08 09:06:00,
2014-01-08 04:21:00,3.0,0.0,30.47,NW,310,0.0,0.0,88,0.00,,,0.00,weatherlink.com 1.10,2014-01-08 09:21:00,
2014-01-08 04:36:00,2.6,0.0,30.47,NW,310,0.0,0.0,88,0.00,,,0.00,weatherlink.com 1.10,2014-01-08 09:36:00,
2014-01-08 04:51:00,2.0,-1.0,30.47,NW,310,0.0,0.0,87,0.00,,,0.00,weatherlink.com 1.10,2014-01-08 09:51:00,
2014-01-08 05:06:00,1.5,-2.0,30.47,NW,310,0.0,0.0,87,0.00,,,0.00,weatherlink.com 1.10,2014-01-08 10:06:00,
2014-01-08 05:21:00,0.9,-2.0,30.47,NW,310,0.0,0.0,87,0.00,,,0.00,weatherlink.com 1.10,2014-01-08 10:21:00,
2014-01-08 05:36:00,0.5,-3.0,30.48,NW,310,0.0,0.0,87,0.00,,,0.00,weatherlink.com 1.10,2014-01-08 10:36:00,
2014-01-08 05:51:00,0.2,-3.0,30.47,NW,310,0.0,0.0,87,0.00,,,0.00,weatherlink.com 1.10,2014-01-08 10:51:00,
2014-01-08 06:06:00,-0.1,-3.0,30.48,NW,310,0.0,0.0,87,0.00,,,0.00,weatherlink.com 1.10,2014-01-08 11:06:00,
2014-01-08 06:21:00,-0.4,-3.0,30.48,NW,310,0.0,0.0,87,0.00,,,0.00,weatherlink.com 1.10,2014-01-08 11:21:00,
2014-01-08 06:36:00,-0.9,-4.0,30.48,NW,310,0.0,0.0,86,0.00,,,0.00,weatherlink.com 1.10,2014-01-08 11:36:00,
2014-01-08 06:51:00,-1.7,-5.0,30.49,NW,310,0.0,0.0,84,0.00,,,0.00,weatherlink.com 1.10,2014-01-08 11:51:00,
2014-01-08 07:07:00,-2.7,-7.0,30.49,NW,310,0.0,0.0,83,0.00,,,0.00,weatherlink.com 1.10,2014-01-08 12:07:00,
2014-01-08 07:21:00,-3.4,-7.0,30.50,NW,310,0.0,0.0,83,0.00,,,0.00,weatherlink.com 1.10,2014-01-08 12:21:00,
2014-01-08 07:36:00,-4.1,-8.0,30.50,NW,310,0.0,0.0,83,0.00,,,0.00,weatherlink.com 1.10,2014-01-08 12:36:00,
2014-01-08 07:51:00,-4.8,-9.0,30.50,NW,310,0.0,0.0,82,0.00,,,0.00,weatherlink.com 1.10,2014-01-08 12:51:00,
2014-01-08 08:07:00,-5.4,-10.0,30.51,NW,310,0.0,0.0,82,0.00,,,0.00,weatherlink.com 1.10,2014-01-08 13:07:00,
2014-01-08 08:22:00,-5.9,-10.0,30.51,NW,310,0.0,0.0,83,0.00,,,0.00,weatherlink.com 1.10,2014-01-08 13:22:00,
2014-01-08 08:37:00,-6.3,-10.0,30.51,NW,310,0.0,0.0,83,0.00,,,0.00,weatherlink.com 1.10,2014-01-08 13:37:00,
2014-01-08 08:52:00,-6.5,-10.0,30.52,NW,310,0.0,0.0,84,0.00,,,0.00,weatherlink.com 1.10,2014-01-08 13:52:00,
2014-01-08 09:07:00,-6.6,-10.0,30.52,NW,310,0.0,0.0,84,0.00,,,0.00,weatherlink.com 1.10,2014-01-08 14:07:00,
2014-01-08 09:22:00,-6.5,-10.0,30.53,NW,310,0.0,0.0,85,0.00,,,0.00,weatherlink.com 1.10,2014-01-08 14:22:00,
2014-01-08 09:37:00,-6.0,-9.0,30.53,NW,310,0.0,0.0,86,0.00,,,0.00,weatherlink.com 1.10,2014-01-08 14:37:00,
2014-01-08 09:52:00,-4.6,-7.0,30.54,NW,310,0.0,0.0,88,0.00,,,0.00,weatherlink.com 1.10,2014-01-08 14:52:00,
2014-01-08 10:07:00,-1.3,-3.0,30.54,NNW,329,0.0,1.0,92,0.00,,,0.00,weatherlink.com 1.10,2014-01-08 15:07:00,
2014-01-08 10:22:00,2.7,1.0,30.55,North,355,0.0,2.0,93,0.00,,,0.00,weatherlink.com 1.10,2014-01-08 15:22:00,
2014-01-08 10:37:00,5.8,4.0,30.55,WSW,254,0.0,2.0,93,0.00,,,0.00,weatherlink.com 1.10,2014-01-08 15:37:00,
2014-01-08 10:52:00,7.9,6.0,30.55,NW,313,0.0,2.0,92,0.00,,,0.00,weatherlink.com 1.10,2014-01-08 15:52:00,
2014-01-08 11:07:00,9.8,8.0,30.55,West,266,0.0,1.0,92,0.00,,,0.00,weatherlink.com 1.10,2014-01-08 16:07:00,
2014-01-08 11:22:00,11.2,9.0,30.55,WNW,297,0.0,2.0,92,0.00,,,0.00,weatherlink.com 1.10,2014-01-08 16:22:00,
2014-01-08 11:38:00,12.6,11.0,30.55,NW,316,0.0,1.0,92,0.00,,,0.00,weatherlink.com 1.10,2014-01-08 16:38:00,
2014-01-08 11:53:00,13.9,12.0,30.54,WSW,257,0.0,1.0,92,0.00,,,0.00,weatherlink.com 1.10,2014-01-08 16:53:00,
2014-01-08 12:08:00,14.8,13.0,30.53,South,171,0.0,1.0,92,0.00,,,0.00,weatherlink.com 1.10,2014-01-08 17:08:00,
2014-01-08 12:23:00,15.9,14.0,30.53,WNW,289,0.0,3.0,92,0.00,,,0.00,weatherlink.com 1.10,2014-01-08 17:23:00,
2014-01-08 12:38:00,17.7,16.0,30.52,NW,307,1.0,2.0,91,0.00,,,0.00,weatherlink.com 1.10,2014-01-08 17:38:00,
2014-01-08 12:53:00,17.9,16.0,30.52,WSW,257,0.0,3.0,90,0.00,,,0.00,weatherlink.com 1.10,2014-01-08 17:53:00,
2014-01-08 13:08:00,17.6,15.0,30.52,West,259,1.0,3.0,89,0.00,,,0.00,weatherlink.com 1.10,2014-01-08 18:08:00,
2014-01-08 13:23:00,17.3,15.0,30.52,WNW,302,4.0,4.0,89,0.00,,,0.00,weatherlink.com 1.10,2014-01-08 18:23:00,
2014-01-08 13:38:00,17.9,15.0,30.51,WNW,289,0.0,3.0,89,0.00,,,0.00,weatherlink.com 1.10,2014-01-08 18:38:00,
2014-01-08 13:53:00,18.4,16.0,30.51,WSW,244,2.0,3.0,88,0.00,,,0.00,weatherlink.com 1.10,2014-01-08 18:53:00,
2014-01-08 14:08:00,18.7,16.0,30.51,SSW,208,0.0,4.0,88,0.00,,,0.00,weatherlink.com 1.10,2014-01-08 19:08:00,
2014-01-08 14:23:00,18.5,15.0,30.51,NW,317,0.0,4.0,87,0.00,,,0.00,weatherlink.com 1.10,2014-01-08 19:23:00,
2014-01-08 14:38:00,18.7,16.0,30.52,SSW,202,1.0,6.0,87,0.00,,,0.00,weatherlink.com 1.10,2014-01-08 19:38:00,
2014-01-08 14:54:00,18.6,15.0,30.52,WSW,237,1.0,4.0,86,0.00,,,0.00,weatherlink.com 1.10,2014-01-08 19:54:00,
2014-01-08 15:09:00,18.1,15.0,30.52,West,271,0.0,6.0,86,0.00,,,0.00,weatherlink.com 1.10,2014-01-08 20:09:00,
2014-01-08 15:24:00,17.7,15.0,30.53,West,263,1.0,4.0,87,0.00,,,0.00,weatherlink.com 1.10,2014-01-08 20:24:00,
2014-01-08 15:39:00,17.5,14.0,30.53,South,189,2.0,5.0,87,0.00,,,0.00,weatherlink.com 1.10,2014-01-08 20:39:00,
2014-01-08 15:54:00,17.4,14.0,30.54,SSW,196,1.0,5.0,86,0.00,,,0.00,weatherlink.com 1.10,2014-01-08 20:54:00,
2014-01-08 16:09:00,17.2,14.0,30.54,West,261,1.0,4.0,86,0.00,,,0.00,weatherlink.com 1.10,2014-01-08 21:09:00,
2014-01-08 16:24:00,16.9,13.0,30.55,West,263,1.0,7.0,86,0.00,,,0.00,weatherlink.com 1.10,2014-01-08 21:24:00,
2014-01-08 16:39:00,16.4,13.0,30.55,West,266,2.0,3.0,85,0.00,,,0.00,weatherlink.com 1.10,2014-01-08 21:39:00,
2014-01-08 16:54:00,15.8,12.0,30.55,NW,308,0.0,5.0,85,0.00,,,0.00,weatherlink.com 1.10,2014-01-08 21:54:00,
2014-01-08 17:09:00,15.3,12.0,30.56,West,261,2.0,3.0,86,0.00,,,0.00,weatherlink.com 1.10,2014-01-08 22:09:00,
2014-01-08 17:24:00,14.8,11.0,30.57,WSW,246,1.0,5.0,86,0.00,,,0.00,weatherlink.com 1.10,2014-01-08 22:24:00,
2014-01-08 17:39:00,14.2,11.0,30.58,NW,304,1.0,3.0,86,0.00,,,0.00,weatherlink.com 1.10,2014-01-08 22:39:00,
2014-01-08 17:54:00,13.7,10.0,30.58,SW,217,0.0,1.0,85,0.00,,,0.00,weatherlink.com 1.10,2014-01-08 22:54:00,
2014-01-08 18:09:00,13.0,9.0,30.59,SW,217,0.0,1.0,84,0.00,,,0.00,weatherlink.com 1.10,2014-01-08 23:09:00,
2014-01-08 18:25:00,12.2,9.0,30.60,NW,305,0.0,0.0,85,0.00,,,0.00,weatherlink.com 1.10,2014-01-08 23:25:00,
2014-01-08 18:40:00,11.6,8.0,30.60,NW,305,0.0,0.0,85,0.00,,,0.00,weatherlink.com 1.10,2014-01-08 23:40:00,
2014-01-08 18:55:00,11.2,8.0,30.61,NW,305,0.0,0.0,86,0.00,,,0.00,weatherlink.com 1.10,2014-01-08 23:55:00,
2014-01-08 19:10:00,10.9,8.0,30.61,NW,305,0.0,0.0,87,0.00,,,0.00,weatherlink.com 1.10,2014-01-09 00:10:00,
2014-01-08 19:25:00,10.9,8.0,30.61,NW,305,0.0,0.0,87,0.00,,,0.00,weatherlink.com 1.10,2014-01-09 00:25:00,
2014-01-08 19:40:00,11.0,8.0,30.62,WNW,302,0.0,1.0,89,0.00,,,0.00,weatherlink.com 1.10,2014-01-09 00:40:00,
2014-01-08 19:55:00,11.3,9.0,30.62,WNW,302,0.0,0.0,90,0.00,,,0.00,weatherlink.com 1.10,2014-01-09 00:55:00,
2014-01-08 20:10:00,11.5,9.0,30.63,WNW,302,0.0,0.0,90,0.00,,,0.00,weatherlink.com 1.10,2014-01-09 01:10:00,
2014-01-08 20:25:00,11.7,10.0,30.63,WNW,302,0.0,1.0,91,0.00,,,0.00,weatherlink.com 1.10,2014-01-09 01:25:00,
2014-01-08 20:40:00,12.1,10.0,30.64,WNW,292,0.0,1.0,91,0.00,,,0.00,weatherlink.com 1.10,2014-01-09 01:40:00,
2014-01-08 22:11:00,12.0,10.0,30.66,SW,232,0.0,0.0,90,0.00,,,0.00,weatherlink.com 1.10,2014-01-09 03:11:00,
2014-01-08 22:26:00,11.8,10.0,30.66,SW,232,0.0,0.0,90,0.00,,,0.00,weatherlink.com 1.10,2014-01-09 03:26:00,
2014-01-08 22:41:00,11.6,9.0,30.67,SW,232,0.0,0.0,90,0.00,,,0.00,weatherlink.com 1.10,2014-01-09 03:41:00,
2014-01-08 22:56:00,11.2,9.0,30.67,SW,232,0.0,0.0,89,0.00,,,0.00,weatherlink.com 1.10,2014-01-09 03:56:00,
2014-01-08 23:11:00,10.6,8.0,30.67,SW,232,0.0,0.0,88,0.00,,,0.00,weatherlink.com 1.10,2014-01-09 04:11:00,
2014-01-08 23:26:00,9.9,7.0,30.68,SW,232,0.0,0.0,88,0.00,,,0.00,weatherlink.com 1.10,2014-01-09 04:26:00,
2014-01-08 23:41:00,9.3,6.0,30.68,SW,232,0.0,0.0,87,0.00,,,0.00,weatherlink.com 1.10,2014-01-09 04:41:00,
2014-01-08 23:56:00,8.7,6.0,30.67,SW,232,0.0,0.0,87,0.00,,,0.00,weatherlink.com 1.10,2014-01-09 04:56:00,